Regional Weather Roundup
Issued by NWS

Home | Current Version | Previous Version | Text Only | Print | Product List | Glossary Off
Versions: 1 2 3 4 5 6 7 8 9 10 11 12 13 14 15 16 17 18 19 20 21 22 23 24 25 26 27 28 29 30 31 32 33 34 35 36 37 38 39 40 41 42 43 44 45 46 47 48 49 50

000
ASUS43 KMKX 100611
RWRWI

WISCONSIN REGIONAL WEATHER ROUNDUP
NATIONAL WEATHER SERVICE MILWAUKEE/SULLIVAN WI
100 AM CDT THU JUL 10 2014

NOTE: "FAIR" INDICATES FEW OR NO CLOUDS BELOW 12,000 FEET WITH NO
SIGNIFICANT WEATHER AND/OR OBSTRUCTIONS TO VISIBILITY.

WIZ001-002-006>008-014>016-023>028-100700-
NORTHWEST WISCONSIN

CITY           SKY/WX    TMP DP  RH WIND       PRES   REMARKS
SUPERIOR ARPT  PTCLDY    48  47  98 CALM      30.03S
6HR MIN TEMP:  48; 6HR MAX TEMP:  73;

ASHLAND        CLEAR     47  47 100 CALM      30.06R
6HR MIN TEMP:  46; 6HR MAX TEMP:  70;

HAYWARD        MOCLDY    54  52  93 CALM      30.06R
6HR MIN TEMP:  53; 6HR MAX TEMP:  72;

SIREN          CLEAR     55  53  92 CALM      30.04S
6HR MIN TEMP:  55; 6HR MAX TEMP:  73;

RICE LAKE      CLEAR     56  53  91 CALM      30.06S
6HR MIN TEMP:  56; 6HR MAX TEMP:  73;

LADYSMITH      CLEAR     56  52  86 E5        30.08S
6HR MIN TEMP:  56; 6HR MAX TEMP:  70;

EAU CLAIRE     CLEAR     59  54  83 CALM      30.04S
6HR MIN TEMP:  59; 6HR MAX TEMP:  75;

MENOMONIE      CLEAR     59  57  91 CALM      30.05R
6HR MIN TEMP:  59; 6HR MAX TEMP:  74;

NEW RICHMOND   CLEAR     59  57  91 CALM      30.04R
6HR MIN TEMP:  59; 6HR MAX TEMP:  74;

OSCEOLA        CLEAR     58  58 100 CALM      30.06R
6HR MIN TEMP:  58; 6HR MAX TEMP:  75;

$$

WIZ003>005-009-010-017-018-100700-
NORTH CENTRAL WISCONSIN

CITY           SKY/WX    TMP DP  RH WIND       PRES   REMARKS
WOODRUFF       CLEAR     46  36  69 CALM      30.08S
6HR MIN TEMP:  46; 6HR MAX TEMP:  67;

RHINELANDER    CLEAR     43  41  93 CALM      30.09R
6HR MIN TEMP:  43; 6HR MAX TEMP:  65;

EAGLE RIVER    FOG       44  44 100 CALM      30.08R VSB 1/2
6HR MIN TEMP:  43; 6HR MAX TEMP:  64;

LAND O LAKES   CLEAR     42  41  99 CALM      30.09S FOG
6HR MIN TEMP:  42; 6HR MAX TEMP:  64;

PHILLIPS       CLEAR     49  49  97 CALM      30.08R
6HR MIN TEMP:  49; 6HR MAX TEMP:  66;

TOMAHAWK       CLEAR     43  42  96 CALM      30.09S
6HR MIN TEMP:  43; 6HR MAX TEMP:  66;

MEDFORD        CLEAR     50  49  97 CALM      30.08S
6HR MIN TEMP:  50; 6HR MAX TEMP:  67;

MERRILL        CLEAR     48  48 100 CALM      30.08S
6HR MIN TEMP:  47; 6HR MAX TEMP:  67;

$$

WIZ029-030-035-036-043>047-100700-
CENTRAL WISCONSIN

CITY           SKY/WX    TMP DP  RH WIND       PRES   REMARKS
WAUSAU         CLEAR     54  50  86 CALM      30.07R
6HR MIN TEMP:  53; 6HR MAX TEMP:  69; 6HR PCP: TRACE;

MOSINEE        CLEAR     54  50  87 CALM      30.09R
MARSHFIELD     CLEAR     56  52  86 CALM      30.07S
6HR MIN TEMP:  55; 6HR MAX TEMP:  70;

STEVENS POINT  CLEAR     49  48  95 CALM      30.09R
6HR MIN TEMP:  49; 6HR MAX TEMP:  67;

WAUPACA        CLEAR     53  51  92 CALM      30.08S
6HR MIN TEMP:  53; 6HR MAX TEMP:  72;

WAUTOMA        CLEAR     53  51  93 CALM      30.09R
6HR MIN TEMP:  53; 6HR MAX TEMP:  71;

WISC RAPIDS    CLEAR     53  51  93 CALM      30.08S
6HR MIN TEMP:  53; 6HR MAX TEMP:  72;

CAMP DOUGLAS   CLEAR     53  53 100 SE2       30.07S
6HR MIN TEMP:  52; 6HR MAX TEMP:  72; 6HR PCP: TRACE;

$$

WIZ011>013-019>022-031-037>040-048>050-100700-
NORTHEAST WISCONSIN

CITY           SKY/WX    TMP DP  RH WIND       PRES   REMARKS
ANTIGO         CLEAR     47  46  97 CALM      30.09R
6HR MIN TEMP:  47; 6HR MAX TEMP:  65;

STURGEON BAY   CLEAR     54  50  87 CALM      30.08R
6HR MIN TEMP:  54; 6HR MAX TEMP:  64;

GREEN BAY      CLEAR     54  53  97 CALM      30.07S
6HR MIN TEMP:  54; 6HR MAX TEMP:  70;

MANITOWOC      CLEAR     54  52  93 CALM      30.08S
6HR MIN TEMP:  53; 6HR MAX TEMP:  63;

APPLETON       CLEAR     57  46  67 CALM      30.08S
CLINTONVILLE   CLEAR     52  50  93 CALM      30.07S
OSHKOSH        CLEAR     56  52  86 CALM      30.07R
6HR MIN TEMP:  53; 6HR MAX TEMP:  70;

$$

WIZ032>034-041-042-053>061-100700-
SOUTHWEST WISCONSIN

CITY           SKY/WX    TMP DP  RH WIND       PRES   REMARKS
LA CROSSE      CLEAR     62  57  83 SE7       30.05R
6HR MIN TEMP:  62; 6HR MAX TEMP:  78;

SPARTA         CLEAR     53  52  95 CALM      30.08R
6HR MIN TEMP:  53; 6HR MAX TEMP:  73;

VIROQUA        FAIR      60  54  78 SE5       30.08R
6HR MIN TEMP:  59; 6HR MAX TEMP:  72;

BOSCOBEL       CLEAR     56  53  90 CALM      30.08R
6HR MIN TEMP:  55; 6HR MAX TEMP:  77;

PRAIRIE DU CHI PTCLDY    61  58  90 E3        30.06S
6HR MIN TEMP:  60; 6HR MAX TEMP:  75;

PLATTEVILLE    FAIR      62  55  80 SE6       30.09R
6HR MIN TEMP:  61; 6HR MAX TEMP:  73;

$$

WIZ056-057-062-063-064-067-068-100700-
SOUTH CENTRAL WISCONSIN

CITY           SKY/WX    TMP DP  RH WIND       PRES   REMARKS
BARABOO/DELLS  CLEAR     55  51  88 CALM      30.08S
6HR MIN TEMP:  54; 6HR MAX TEMP:  72;

LONE ROCK      CLEAR     59  54  83 CALM      30.08R
6HR MIN TEMP:  58; 6HR MAX TEMP:  77;

WATERTOWN      CLEAR     55  53  93 CALM      30.08R
6HR MIN TEMP:  55; 6HR MAX TEMP:  71;

MADISON        CLEAR     56  53  90 CALM      30.08R
6HR MIN TEMP:  56; 6HR MAX TEMP:  74;

MIDDLETON      FAIR      55  55 100 CALM      30.09R
6HR MIN TEMP:  55; 6HR MAX TEMP:  73;

MONROE         CLEAR     64  52  63 SE5       30.09R
JANESVILLE     CLEAR     57  52  82 CALM      30.08R
$$

WIZ051-052-058>065-066-070>072-100700-
SOUTHEAST WISCONSIN

CITY           SKY/WX    TMP DP  RH WIND       PRES   REMARKS
MILWAUKEE      CLEAR     59  54  83 CALM      30.08
6HR MIN TEMP:  59; 6HR MAX TEMP:  67;

WAUKESHA       CLEAR     54  50  87 CALM      30.10R
MILWAUKEE/TIMM CLEAR     57  54  88 CALM      30.09R
RACINE         CLEAR     58  55  90 SW3       30.10R
6HR MIN TEMP:  58; 6HR MAX TEMP:  67;

BURLINGTON     CLEAR     52  52  99 CALM      30.09R
6HR MIN TEMP:  52; 6HR MAX TEMP:  69;

KENOSHA        CLEAR     55  55 100 CALM      30.09
6HR MIN TEMP:  55; 6HR MAX TEMP:  68;

FOND DU LAC    CLEAR     53  51  93 CALM      30.08R
6HR MIN TEMP:  53; 6HR MAX TEMP:  70;

SHEBOYGAN      PTCLDY    53  52  96 CALM      30.08R FOG
6HR MIN TEMP:  51; 6HR MAX TEMP:  71;

WEST BEND      CLEAR     54  52  94 CALM      30.08R
JUNEAU         CLEAR     57  41  56 CALM      30.09R
6HR MIN TEMP:  56; 6HR MAX TEMP:  70;

$$

LSZ147-162-100700-
LAKE SUPERIOR

STATION/POSITION TIME  TEMP    WIND        PRES    WAVE
                       AIR SEA DIR/SP/G            HT/PER
                 (UTC) (F)     (DEG/KT/KT) (MB)    (FT/S)
W MID LAKE BUOY  0550   44 38  250/  6/  6 1017.3R   0
DEVILS ISLAND    0600   63     190/ 10/ 11 1017.1R
PORT WING        0500   58     150/  2/  6 1016.9R
SAXON HARBOR     0500          190/  5/  8 1017.3R
$$

LMZ867-665-643>646-100700-
LAKE MICHIGAN

STATION/POSITION TIME  TEMP    WIND        PRES    WAVE
                       AIR SEA DIR/SP/G            HT/PER
                 (UTC) (F)     (DEG/KT/KT) (MB)    (FT/S)
N MID LAKE BUOY  0550   56 54  170/  2/  4 1018.0R   0
NORTHPORT PIER   0500   58     190/  3/  5 1017.9R
SISTER BAY       0410   56        CALM       N/A
KEWAUNEE LAKESHO 0500   55     300/  3/  4 1018.7R
SHEBOYGAN LAKESH 0600   59        CALM     1018.8R
PORT WASHINGTON  0540   57      CALM  /  1 1019.0R
ATWATER BUOY     0600   54     280/  4     1019.5R
MILWAUKEE LAKESH 0500   61     350/  1/  2   N/A
S MID LAKE BUOY  0550   58 56     CALM     1018.8R   0
KENOSHA   LAKESH 0600   62     260/  1/  4   N/A
$$

TC  - TEMPERATURE IN CELSIUS
VSB - VISIBILITY IN STATUTE MILES
WCI - WIND CHILL INDEX
HX  - HEAT INDEX




USA.gov is the U.S. government's official web portal to all federal, state and local government web resources and services.